Weather History for Leesburg, FL

Change the Weather History Date:

Tuesday, December 4, 2012

  Actual Average Record
Temperature  
Mean Temperature 68 °F -  
Max Temperature 80 °F 72 °F 85 °F (1978)
Min Temperature 55 °F 48 °F 30 °F (1989)
Cooling Degree Days 2    
Growing Degree Days 18 (Base 50)    
Moisture  
Dew Point 56 °F    
Average Humidity 78    
Maximum Humidity 100    
Minimum Humidity 36    
Precipitation  
Precipitation 0.01 in - - ()
Sea Level Pressure  
Sea Level Pressure 30.26 in    
Wind  
Wind Speed 2 mph (ENE)    
Max Wind Speed 9 mph    
Max Gust Speed -    
Visibility 7 miles    
Events Fog    
Averages and records for this station are not official NWS values.
T = Trace of Precipitation, MM = Missing Value Source: NWS Daily Summary

Daily Weather History Graph

Daily Weather History Graph

Search for Another Location

Airport:

Trip Planner

Search our weather history database for the weather conditions in past years. The results will help you decide how hot, cold, wet, or windy it might be!

Date:

Astronomy

Dec. 04, 2012 Rise Set
Actual Time 7:05 AM EST 5:29 PM EST
Civil Twilight 6:39 AM EST 5:55 PM EST
Nautical Twilight 6:10 AM EST 6:24 PM EST
Astronomical Twilight 5:41 AM EST 6:53 PM EST
Moon 10:57 PM EST (12/4) 11:14 AM EST (12/4)
Length of Visible Light 11h 15m
Length of Day
10h 23m
Waning Gibbous, 69% of the Moon is Illuminated
Dec 4
Waning Gibbous
Dec 6
Last Quarter
Dec 13
New
Dec 20
First Quarter
Dec 28
Full

Hourly Weather History & Observations

Time (EST) Temp. Dew Point Humidity Pressure Visibility Wind Dir Wind Speed Gust Speed Precip Events Conditions
12:53 AM 62.1 °F 61.0 °F 96% 30.26 in 10.0 mi Calm Calm - N/A   Clear
1:45 AM 60.8 °F 59.0 °F 94% 30.26 in 1.8 mi Calm Calm - N/A   Clear
1:53 AM 61.0 °F 61.0 °F 100% 30.26 in 3.0 mi Calm Calm - N/A   Clear
2:40 AM 59.0 °F 57.2 °F 94% 30.26 in 1.5 mi Calm Calm - N/A   Clear
2:46 AM 59.0 °F 57.2 °F 94% 30.26 in 0.8 mi Calm Calm - N/A   Mist
2:53 AM 59.0 °F 59.0 °F 100% 30.25 in 1.0 mi Calm Calm - N/A   Mist
3:05 AM 59.0 °F 57.2 °F 94% 30.25 in 0.5 mi Calm Calm - N/A Fog Fog
3:53 AM 57.9 °F 57.0 °F 97% 30.25 in 0.5 mi Calm Calm - N/A Fog Fog
4:08 AM 57.2 °F 57.2 °F 100% 30.25 in 1.0 mi Calm Calm - N/A   Mist
4:23 AM 57.2 °F 57.2 °F 100% 30.25 in 0.8 mi Calm Calm - N/A   Clear
4:44 AM 57.2 °F 55.4 °F 94% 30.25 in 1.0 mi Calm Calm - N/A   Clear
5:11 AM 57.2 °F 55.4 °F 94% 30.25 in 2.5 mi Calm Calm - N/A   Clear
5:18 AM 57.2 °F 57.2 °F 100% 30.25 in 10.0 mi Calm Calm - N/A   Clear
5:37 AM 57.2 °F 57.2 °F 100% 30.25 in 1.8 mi Calm Calm - N/A   Clear
5:50 AM 55.4 °F 55.4 °F 100% 30.26 in 3.0 mi NNE 3.5 mph - N/A   Clear
5:53 AM 55.9 °F 55.9 °F 100% 30.26 in 5.0 mi NNE 3.5 mph - N/A   Clear
6:53 AM - - N/A% 30.28 in 10.0 mi Calm Calm - N/A   Clear
7:53 AM - - N/A% 30.30 in 10.0 mi Calm Calm - N/A   Clear
8:53 AM 64.0 °F 60.1 °F 87% 30.31 in 10.0 mi NNE 3.5 mph - N/A   Clear
9:53 AM 72.0 °F 57.9 °F 61% 30.32 in 10.0 mi ENE 5.8 mph - 0.01 in   Clear
10:53 AM 73.9 °F 57.0 °F 55% 30.32 in 10.0 mi ESE 6.9 mph - N/A   Clear
11:53 AM 75.9 °F 55.0 °F 48% 30.29 in 10.0 mi SSE 5.8 mph - N/A   Clear
12:53 PM 78.1 °F 53.1 °F 42% 30.27 in 10.0 mi ESE 6.9 mph - N/A   Scattered Clouds
1:53 PM 80.1 °F 51.1 °F 36% 30.23 in 10.0 mi East 9.2 mph - N/A   Clear
2:53 PM 80.1 °F 51.1 °F 36% 30.22 in 10.0 mi ENE 9.2 mph - N/A   Partly Cloudy
3:53 PM 78.1 °F 50.0 °F 37% 30.22 in 10.0 mi ESE 8.1 mph - N/A   Clear
4:53 PM 75.9 °F 51.1 °F 42% 30.22 in 10.0 mi East 5.8 mph - N/A   Clear
5:53 PM 70.0 °F 53.1 °F 55% 30.23 in 10.0 mi ENE 5.8 mph - N/A   Clear
6:53 PM 68.0 °F 55.9 °F 65% 30.24 in 10.0 mi East 5.8 mph - N/A   Clear
7:53 PM 66.9 °F 55.9 °F 68% 30.25 in 10.0 mi ENE 6.9 mph - N/A   Clear
8:53 PM 66.0 °F 57.0 °F 73% 30.24 in 10.0 mi ENE 5.8 mph - N/A   Clear
9:53 PM 64.0 °F 57.0 °F 78% 30.24 in 10.0 mi ENE 5.8 mph - N/A   Clear
10:53 PM 63.0 °F 57.0 °F 81% 30.23 in 10.0 mi ENE 5.8 mph - N/A   Clear
11:53 PM 61.0 °F 57.0 °F 87% 30.23 in 10.0 mi Calm Calm - N/A   Clear